Regional Weather Roundup
Issued by NWS

Home | Current Version | Previous Version | Text Only | Print | Product List | Glossary Off
Versions: 1 2 3 4 5 6 7 8 9 10 11 12 13 14 15 16 17 18 19 20 21 22 23 24 25 26 27

000
ASUS45 KBOU 151507
RWRCO

WEATHER ROUNDUP FOR COLORADO
NATIONAL WEATHER SERVICE DENVER/BOULDER CO
800 AM MST SUN JAN 15 2017

NOTE: "FAIR" INDICATES FEW OR NO CLOUDS BELOW 12000 FEET WITH NO
SIGNIFICANT WEATHER AND/OR OBSTRUCTIONS TO VISIBILITY.

COZ001>005-013-030-031-151600-
...NORTHWEST COLORADO...

CITY           SKY/WX    TMP DP  RH WIND       PRES   REMARKS
CRAIG          CLOUDY    23  19  85 NE7       30.09S FOG     WCI  15
HAYDEN         CLOUDY    25  21  86 SE5       30.07R WCI  19
MEEKER         CLOUDY    28  24  85 N8        30.05S WCI  20
MOUNT WERNER   NOT AVBL
STEAMBOAT SPGS CLOUDY    21  20  96 CALM      30.06F
WALDEN           N/A    N/A N/A N/A CALM      30.10F VSB 1/4
$$

COZ006>008-011-151600-
...WEST CENTRAL VALLEYS...

CITY           SKY/WX    TMP DP  RH WIND       PRES   REMARKS
GRAND JUNCTION CLOUDY    34  33  96 N3        30.00S
MONTROSE       FOG       32  32 100 E3        30.02S VSB 1/4
EAGLE          CLOUDY    28  25  86 CALM      30.08F
RIFLE          CLOUDY    30  29  96 CALM      30.03F
DELTA          CLOUDY    37  36  96 SW3       30.02S FOG
NUCLA          CLOUDY    34  32  93 CALM      30.00F
$$

COZ017>023-064>068-151600-
...SOUTHWEST COLORADO...

CITY           SKY/WX    TMP DP  RH WIND       PRES   REMARKS
DURANGO        FAIR      34  31  88 CALM      29.91F
CORTEZ         CLOUDY    39  37  92 CALM      29.93F
PAGOSA SPRINGS CLOUDY    33  33 100 CALM      29.95S FOG
TELLURIDE      FAIR      30  29  96 W6        29.97F WCI  24
WOLF CREEK PAS CLOUDY    21  21 100 N9        30.07F WCI  11
$$

COZ009-010-012-014-032>034-037-058>063-151600-
...CENTRAL COLORADO...

CITY           SKY/WX    TMP DP  RH WIND       PRES   REMARKS
ASPEN          CLOUDY    22  22 100 CALM      30.01F
BUENA VISTA    CLOUDY    27  23  82 CALM      30.05S
COPPER MTN     NOT AVBL
BERTHOUD PASS  NOT AVBL
COTTONWOOD PAS CLOUDY    30  27  86 CALM      30.06S
GUNNISON       FOG       16  15  96 NE6       30.05F VSB 1/2 WCI   7
KREMMLING      FOG      N/A N/A N/A CALM      30.11S VSB 1
LEADVILLE      CLOUDY    22  20  92 CALM      30.04F
MONARCH PASS   CLOUDY    23  21  93 NE18      30.15S WCI   9
SALIDA         CLOUDY    32  31  96 CALM      30.12F
SUNLIGHT       FOG       23  21  93 E5        30.06F VSB 1/2 WCI  17
WILKERSON PASS NOT AVBL
$$

COZ069>075-151600-
...SAN LUIS VALLEY/SANGRE DE CRISTO MOUNTAINS...

CITY           SKY/WX    TMP DP  RH WIND       PRES   REMARKS
ALAMOSA        CLOUDY    27  26  96 CALM      29.99F
LA VETA PASS   NOT AVBL
SAGUACHE       FAIR      27  27 100 CALM      30.00F
$$

COZ035-036-038>040-151600-
...NORTHERN COLORADO FRONT RANGE...

CITY           SKY/WX    TMP DP  RH WIND       PRES   REMARKS
DENVER INTL AP CLOUDY    29  25  85 W10       30.09F FOG     WCI  20
DMNS CITY PARK   N/A     27  24  90 E8        30.11S WCI  18
AURORA         CLOUDY    27  27  99 SW5       30.09F FOG     WCI  22
FRONT RANGE AP CLOUDY    30  28  93 SW5       30.10S FOG     WCI  25
ERIE MUNI ARPT MOCLDY    24  23  95 CALM      30.10F FOG
BOULDER MUN AP FAIR      30  27  86 SW5       30.10S WCI  25
CENTENNIAL     CLOUDY    27  23  85 W8        30.08F FOG     WCI  19
BROOMFIELD     CLOUDY    28  27  93 W5        30.10S WCI  23
FORT COLLINS   CLOUDY    25  21  86 CALM      30.12S
LONGMONT       FAIR      24  21  87 CALM      30.13S
$$

COZ041-046-047-076>085-087-088-151600-
...PIKES PEAK/PALMER DIVIDE AND SOUTHERN FOOTHILLS...

CITY           SKY/WX    TMP DP  RH WIND       PRES   REMARKS
COLO. SPRINGS  CLOUDY    30  25  81 SE5       30.07S WCI  25
A. F. ACADEMY  CLOUDY    29  24  83 N7        30.05F WCI  22
SCHRIEVER AFB  NOT AVBL
ELLICOTT       SNOW     N/A N/A N/A E3        30.06S
FALCON         CLOUDY    31  25  77 CALM      30.07S
FORT CARSON    LGT SNOW  30  25  80 S6        30.07S WCI  24
LIMON          MIX PCPN  29  28  96 N3        30.09S FOG
MONUMENT HILL  CLOUDY    27  25  93 W3        30.08S FOG
TRINIDAD       CLOUDY    31  29  92 CALM      30.06S FOG
$$

COZ042>045-048>051-090-091-151600-
...NORTHEAST COLORADO...

CITY           SKY/WX    TMP DP  RH WIND       PRES   REMARKS
GREELEY ARPT   CLOUDY    26  25  96 CALM      30.13S FOG
AKRON          CLOUDY    29  22  75 CALM      30.10S
BURLINGTON     MIX PCPN  32  28  85 CALM      30.12R
WRAY           NOT AVBL
STERLING       CLOUDY    25  23  93 CALM      30.12F
HOLYOKE        CLOUDY    28  23  80 CALM      30.14S
FORT MORGAN    CLOUDY    26  23  89 W5        30.13R WCI  20
$$

COZ086-089-092>099-151600-
...SOUTHEAST COLORADO...

CITY           SKY/WX    TMP DP  RH WIND       PRES   REMARKS
PUEBLO         LGT SNOW  29  26  89 CALM      30.10F FOG
LA JUNTA       CLOUDY    31  29  92 N6        30.11S FOG     WCI  25
LAMAR          CLOUDY    31  29  92 NE5       30.11F FOG     WCI  26
SPRINGFIELD      N/A     30  30 100 CALM      30.09R
$$




USA.gov is the U.S. government's official web portal to all federal, state and local government web resources and services.